<?xml version="1.0" encoding="UTF-8" standalone="no" ?>
<gpx xmlns="http://www.topografix.com/GPX/1/1" xmlns:xsi="http://www.w3.org/2001/XMLSchema-instance" xsi:schemaLocation="http://www.topografix.com/GPX/1/1 http://www.topografix.com/GPX/1/1/gpx.xsd" version="1.1" creator="VisuGPX - https://www.visugpx.com">
  <metadata>
    <name>Dourdan_St_Cheron</name>
  </metadata>
  <trk>
    <name><![CDATA[Dourdan_St_Cheron]]></name>
    <trkseg>
      <trkpt lat="48.53356" lon="2.00942">
        <ele>117.37339</ele>
        <time>2020-07-14T06:57:11.000Z</time>
      </trkpt>
      <trkpt lat="48.53351" lon="2.00993">
        <ele>117.44885</ele>
        <time>2020-07-14T06:57:48.000Z</time>
      </trkpt>
      <trkpt lat="48.53348" lon="2.00979">
        <ele>117.38347</ele>
        <time>2020-07-14T06:58:00.000Z</time>
      </trkpt>
      <trkpt lat="48.53332" lon="2.00977">
        <ele>117.20916</ele>
        <time>2020-07-14T06:59:17.000Z</time>
      </trkpt>
      <trkpt lat="48.53326" lon="2.00963">
        <ele>117.15188</ele>
        <time>2020-07-14T07:00:02.000Z</time>
      </trkpt>
      <trkpt lat="48.5334" lon="2.00973">
        <ele>117.31495</ele>
        <time>2020-07-14T07:01:02.000Z</time>
      </trkpt>
      <trkpt lat="48.5332" lon="2.00957">
        <ele>117.09712</ele>
        <time>2020-07-14T07:01:28.000Z</time>
      </trkpt>
      <trkpt lat="48.53233" lon="2.00946">
        <ele>115.8353</ele>
        <time>2020-07-14T07:02:34.000Z</time>
      </trkpt>
      <trkpt lat="48.53229" lon="2.00902">
        <ele>116.50663</ele>
        <time>2020-07-14T07:02:50.000Z</time>
      </trkpt>
      <trkpt lat="48.53235" lon="2.00889">
        <ele>116.85531</ele>
        <time>2020-07-14T07:02:58.000Z</time>
      </trkpt>
      <trkpt lat="48.53207" lon="2.00862">
        <ele>115.32363</ele>
        <time>2020-07-14T07:03:22.000Z</time>
      </trkpt>
      <trkpt lat="48.53164" lon="2.00788">
        <ele>106.28974</ele>
        <time>2020-07-14T07:04:18.000Z</time>
      </trkpt>
      <trkpt lat="48.53169" lon="2.00747">
        <ele>101.61937</ele>
        <time>2020-07-14T07:04:51.000Z</time>
      </trkpt>
      <trkpt lat="48.5314" lon="2.00709">
        <ele>97.568</ele>
        <time>2020-07-14T07:05:15.000Z</time>
      </trkpt>
      <trkpt lat="48.5314" lon="2.00709">
        <ele>97.568</ele>
        <time>2020-07-14T07:05:15.000Z</time>
      </trkpt>
      <trkpt lat="48.53201" lon="2.00584">
        <ele>96.77841</ele>
        <time>2020-07-14T07:06:42.000Z</time>
      </trkpt>
      <trkpt lat="48.53223" lon="2.00496">
        <ele>96.59911</ele>
        <time>2020-07-14T07:07:30.000Z</time>
      </trkpt>
      <trkpt lat="48.53263" lon="2.00259">
        <ele>96.86357</ele>
        <time>2020-07-14T07:09:52.000Z</time>
      </trkpt>
      <trkpt lat="48.53257" lon="2.00166">
        <ele>97.32754</ele>
        <time>2020-07-14T07:10:44.000Z</time>
      </trkpt>
      <trkpt lat="48.53264" lon="2.00155">
        <ele>98.09643</ele>
        <time>2020-07-14T07:10:53.000Z</time>
      </trkpt>
      <trkpt lat="48.533" lon="2.00151">
        <ele>99.62078</ele>
        <time>2020-07-14T07:11:24.000Z</time>
      </trkpt>
      <trkpt lat="48.53309" lon="2.00091">
        <ele>99.49008</ele>
        <time>2020-07-14T07:11:58.000Z</time>
      </trkpt>
      <trkpt lat="48.53309" lon="2.00091">
        <ele>99.49008</ele>
        <time>2020-07-14T07:11:58.000Z</time>
      </trkpt>
      <trkpt lat="48.53316" lon="2.0007">
        <ele>99.68437</ele>
        <time>2020-07-14T07:12:39.000Z</time>
      </trkpt>
      <trkpt lat="48.53307" lon="1.99969">
        <ele>100.38014</ele>
        <time>2020-07-14T07:13:36.000Z</time>
      </trkpt>
      <trkpt lat="48.5331" lon="1.99912">
        <ele>100.58707</ele>
        <time>2020-07-14T07:14:02.000Z</time>
      </trkpt>
      <trkpt lat="48.53304" lon="1.99894">
        <ele>100.45135</ele>
        <time>2020-07-14T07:14:13.000Z</time>
      </trkpt>
      <trkpt lat="48.53234" lon="1.99839">
        <ele>97.89849</ele>
        <time>2020-07-14T07:15:01.000Z</time>
      </trkpt>
      <trkpt lat="48.5322" lon="1.99813">
        <ele>97.69616</ele>
        <time>2020-07-14T07:15:17.000Z</time>
      </trkpt>
      <trkpt lat="48.53202" lon="1.9966">
        <ele>98.87565</ele>
        <time>2020-07-14T07:16:26.000Z</time>
      </trkpt>
      <trkpt lat="48.53203" lon="1.99512">
        <ele>101.52512</ele>
        <time>2020-07-14T07:17:40.000Z</time>
      </trkpt>
      <trkpt lat="48.53191" lon="1.99468">
        <ele>100.9708</ele>
        <time>2020-07-14T07:18:02.000Z</time>
      </trkpt>
      <trkpt lat="48.53163" lon="1.99464">
        <ele>99.30383</ele>
        <time>2020-07-14T07:18:30.000Z</time>
      </trkpt>
      <trkpt lat="48.53163" lon="1.99464">
        <ele>99.30383</ele>
        <time>2020-07-14T07:18:30.000Z</time>
      </trkpt>
      <trkpt lat="48.53112" lon="1.99475">
        <ele>98.37473</ele>
        <time>2020-07-14T07:18:58.000Z</time>
      </trkpt>
      <trkpt lat="48.53075" lon="1.99499">
        <ele>98.65817</ele>
        <time>2020-07-14T07:19:29.000Z</time>
      </trkpt>
      <trkpt lat="48.53053" lon="1.99478">
        <ele>98.06876</ele>
        <time>2020-07-14T07:19:46.000Z</time>
      </trkpt>
      <trkpt lat="48.52986" lon="1.9929">
        <ele>98.1569</ele>
        <time>2020-07-14T07:21:31.000Z</time>
      </trkpt>
      <trkpt lat="48.52962" lon="1.99203">
        <ele>99.22974</ele>
        <time>2020-07-14T07:22:21.000Z</time>
      </trkpt>
      <trkpt lat="48.52957" lon="1.9915">
        <ele>99.07649</ele>
        <time>2020-07-14T07:22:48.000Z</time>
      </trkpt>
      <trkpt lat="48.52957" lon="1.9915">
        <ele>99.07649</ele>
        <time>2020-07-14T07:22:48.000Z</time>
      </trkpt>
      <trkpt lat="48.52964" lon="1.99017">
        <ele>98.94874</ele>
        <time>2020-07-14T07:23:51.000Z</time>
      </trkpt>
      <trkpt lat="48.52941" lon="1.98909">
        <ele>99.44969</ele>
        <time>2020-07-14T07:24:50.000Z</time>
      </trkpt>
      <trkpt lat="48.52946" lon="1.98777">
        <ele>99.25584</ele>
        <time>2020-07-14T07:25:54.000Z</time>
      </trkpt>
      <trkpt lat="48.52972" lon="1.98759">
        <ele>98.80509</ele>
        <time>2020-07-14T07:26:16.000Z</time>
      </trkpt>
      <trkpt lat="48.53118" lon="1.98731">
        <ele>102.10979</ele>
        <time>2020-07-14T07:28:05.000Z</time>
      </trkpt>
      <trkpt lat="48.53118" lon="1.98709">
        <ele>102.14947</ele>
        <time>2020-07-14T07:28:19.000Z</time>
      </trkpt>
      <trkpt lat="48.53118" lon="1.98709">
        <ele>102.14947</ele>
        <time>2020-07-14T07:28:19.000Z</time>
      </trkpt>
      <trkpt lat="48.53103" lon="1.98612">
        <ele>101.52172</ele>
        <time>2020-07-14T07:29:09.000Z</time>
      </trkpt>
      <trkpt lat="48.52959" lon="1.98624">
        <ele>98.71288</ele>
        <time>2020-07-14T07:31:15.000Z</time>
      </trkpt>
      <trkpt lat="48.52944" lon="1.98599">
        <ele>98.8731</ele>
        <time>2020-07-14T07:31:33.000Z</time>
      </trkpt>
      <trkpt lat="48.52944" lon="1.98599">
        <ele>98.8731</ele>
        <time>2020-07-14T07:31:33.000Z</time>
      </trkpt>
      <trkpt lat="48.5294" lon="1.98575">
        <ele>98.83561</ele>
        <time>2020-07-14T07:31:46.000Z</time>
      </trkpt>
      <trkpt lat="48.52948" lon="1.98505">
        <ele>98.35342</ele>
        <time>2020-07-14T07:32:26.000Z</time>
      </trkpt>
      <trkpt lat="48.52937" lon="1.98476">
        <ele>98.5167</ele>
        <time>2020-07-14T07:32:45.000Z</time>
      </trkpt>
      <trkpt lat="48.52933" lon="1.98412">
        <ele>99.05722</ele>
        <time>2020-07-14T07:33:21.000Z</time>
      </trkpt>
      <trkpt lat="48.52948" lon="1.9838">
        <ele>99.10919</ele>
        <time>2020-07-14T07:33:48.000Z</time>
      </trkpt>
      <trkpt lat="48.52955" lon="1.98226">
        <ele>99.55454</ele>
        <time>2020-07-14T07:35:17.000Z</time>
      </trkpt>
      <trkpt lat="48.52929" lon="1.9812">
        <ele>99.74464</ele>
        <time>2020-07-14T07:37:01.000Z</time>
      </trkpt>
      <trkpt lat="48.52937" lon="1.98112">
        <ele>99.81241</ele>
        <time>2020-07-14T07:38:17.000Z</time>
      </trkpt>
      <trkpt lat="48.52951" lon="1.98126">
        <ele>99.98906</ele>
        <time>2020-07-14T07:38:48.000Z</time>
      </trkpt>
      <trkpt lat="48.52951" lon="1.98126">
        <ele>99.98906</ele>
        <time>2020-07-14T07:38:48.000Z</time>
      </trkpt>
      <trkpt lat="48.52987" lon="1.98076">
        <ele>104.02087</ele>
        <time>2020-07-14T07:39:23.000Z</time>
      </trkpt>
      <trkpt lat="48.53003" lon="1.9801">
        <ele>105.40581</ele>
        <time>2020-07-14T07:40:03.000Z</time>
      </trkpt>
      <trkpt lat="48.53016" lon="1.98014">
        <ele>107.0204</ele>
        <time>2020-07-14T07:40:16.000Z</time>
      </trkpt>
      <trkpt lat="48.53065" lon="1.98084">
        <ele>112.70961</ele>
        <time>2020-07-14T07:41:15.000Z</time>
      </trkpt>
      <trkpt lat="48.53234" lon="1.98023">
        <ele>120.15129</ele>
        <time>2020-07-14T07:43:29.000Z</time>
      </trkpt>
      <trkpt lat="48.53262" lon="1.98037">
        <ele>120.88975</ele>
        <time>2020-07-14T07:43:56.000Z</time>
      </trkpt>
      <trkpt lat="48.53262" lon="1.98037">
        <ele>120.88975</ele>
        <time>2020-07-14T07:43:56.000Z</time>
      </trkpt>
      <trkpt lat="48.53304" lon="1.97988">
        <ele>115.00371</ele>
        <time>2020-07-14T07:44:50.000Z</time>
      </trkpt>
      <trkpt lat="48.53358" lon="1.98003">
        <ele>113.8108</ele>
        <time>2020-07-14T07:45:41.000Z</time>
      </trkpt>
      <trkpt lat="48.53406" lon="1.97945">
        <ele>113.79373</ele>
        <time>2020-07-14T07:46:29.000Z</time>
      </trkpt>
      <trkpt lat="48.53433" lon="1.97884">
        <ele>111.84192</ele>
        <time>2020-07-14T07:47:10.000Z</time>
      </trkpt>
      <trkpt lat="48.5353" lon="1.97723">
        <ele>115.21793</ele>
        <time>2020-07-14T07:48:59.000Z</time>
      </trkpt>
      <trkpt lat="48.53608" lon="1.97635">
        <ele>117.11463</ele>
        <time>2020-07-14T07:50:15.000Z</time>
      </trkpt>
      <trkpt lat="48.53741" lon="1.97385">
        <ele>122.81654</ele>
        <time>2020-07-14T07:53:03.000Z</time>
      </trkpt>
      <trkpt lat="48.53741" lon="1.97385">
        <ele>122.81654</ele>
        <time>2020-07-14T07:53:03.000Z</time>
      </trkpt>
      <trkpt lat="48.53786" lon="1.97255">
        <ele>124.5129</ele>
        <time>2020-07-14T07:54:19.000Z</time>
      </trkpt>
      <trkpt lat="48.53813" lon="1.97132">
        <ele>128.55131</ele>
        <time>2020-07-14T07:55:24.000Z</time>
      </trkpt>
      <trkpt lat="48.53792" lon="1.96971">
        <ele>131.36986</ele>
        <time>2020-07-14T07:56:49.000Z</time>
      </trkpt>
      <trkpt lat="48.53792" lon="1.96923">
        <ele>133.10523</ele>
        <time>2020-07-14T07:57:25.000Z</time>
      </trkpt>
      <trkpt lat="48.53806" lon="1.96919">
        <ele>134.12842</ele>
        <time>2020-07-14T07:57:40.000Z</time>
      </trkpt>
      <trkpt lat="48.53806" lon="1.96919">
        <ele>134.12842</ele>
        <time>2020-07-14T07:57:40.000Z</time>
      </trkpt>
      <trkpt lat="48.53979" lon="1.96922">
        <ele>155.97423</ele>
        <time>2020-07-14T08:00:45.000Z</time>
      </trkpt>
      <trkpt lat="48.53979" lon="1.96922">
        <ele>155.97423</ele>
        <time>2020-07-14T08:00:45.000Z</time>
      </trkpt>
      <trkpt lat="48.53983" lon="1.96734">
        <ele>157.51562</ele>
        <time>2020-07-14T08:03:14.000Z</time>
      </trkpt>
      <trkpt lat="48.53993" lon="1.96724">
        <ele>157.68447</ele>
        <time>2020-07-14T08:03:24.000Z</time>
      </trkpt>
      <trkpt lat="48.54016" lon="1.96734">
        <ele>157.77755</ele>
        <time>2020-07-14T08:03:42.000Z</time>
      </trkpt>
      <trkpt lat="48.54016" lon="1.96734">
        <ele>157.77755</ele>
        <time>2020-07-14T08:03:42.000Z</time>
      </trkpt>
      <trkpt lat="48.54205" lon="1.96868">
        <ele>158.06649</ele>
        <time>2020-07-14T08:06:23.000Z</time>
      </trkpt>
      <trkpt lat="48.54257" lon="1.96916">
        <ele>158.09149</ele>
        <time>2020-07-14T08:07:54.000Z</time>
      </trkpt>
      <trkpt lat="48.54299" lon="1.9691">
        <ele>158.27391</ele>
        <time>2020-07-14T08:10:23.000Z</time>
      </trkpt>
      <trkpt lat="48.54327" lon="1.96922">
        <ele>158.25006</ele>
        <time>2020-07-14T08:10:51.000Z</time>
      </trkpt>
      <trkpt lat="48.54483" lon="1.97024">
        <ele>157.00942</ele>
        <time>2020-07-14T08:13:06.000Z</time>
      </trkpt>
      <trkpt lat="48.54632" lon="1.97202">
        <ele>160.35074</ele>
        <time>2020-07-14T08:15:35.000Z</time>
      </trkpt>
      <trkpt lat="48.54632" lon="1.97202">
        <ele>160.35074</ele>
        <time>2020-07-14T08:15:35.000Z</time>
      </trkpt>
      <trkpt lat="48.5473" lon="1.9732">
        <ele>160.98532</ele>
        <time>2020-07-14T08:18:30.000Z</time>
      </trkpt>
      <trkpt lat="48.54828" lon="1.97851">
        <ele>161.76484</ele>
        <time>2020-07-14T08:23:08.000Z</time>
      </trkpt>
      <trkpt lat="48.5485" lon="1.97885">
        <ele>161.67304</ele>
        <time>2020-07-14T08:23:33.000Z</time>
      </trkpt>
      <trkpt lat="48.54852" lon="1.97913">
        <ele>161.57055</ele>
        <time>2020-07-14T08:23:48.000Z</time>
      </trkpt>
      <trkpt lat="48.54842" lon="1.97935">
        <ele>161.47096</ele>
        <time>2020-07-14T08:24:14.000Z</time>
      </trkpt>
      <trkpt lat="48.54849" lon="1.97982">
        <ele>161.39152</ele>
        <time>2020-07-14T08:24:43.000Z</time>
      </trkpt>
      <trkpt lat="48.54871" lon="1.9807">
        <ele>161.20428</ele>
        <time>2020-07-14T08:25:24.000Z</time>
      </trkpt>
      <trkpt lat="48.54913" lon="1.98343">
        <ele>160.80886</ele>
        <time>2020-07-14T08:27:42.000Z</time>
      </trkpt>
      <trkpt lat="48.54945" lon="1.98486">
        <ele>159.98425</ele>
        <time>2020-07-14T08:29:13.000Z</time>
      </trkpt>
      <trkpt lat="48.54945" lon="1.98486">
        <ele>159.98425</ele>
        <time>2020-07-14T08:29:13.000Z</time>
      </trkpt>
      <trkpt lat="48.54741" lon="1.98611">
        <ele>160.48</ele>
        <time>2020-07-14T08:31:58.000Z</time>
      </trkpt>
      <trkpt lat="48.54684" lon="1.98659">
        <ele>160.23089</ele>
        <time>2020-07-14T08:32:49.000Z</time>
      </trkpt>
      <trkpt lat="48.54642" lon="1.98713">
        <ele>159.51553</ele>
        <time>2020-07-14T08:33:29.000Z</time>
      </trkpt>
      <trkpt lat="48.54576" lon="1.98851">
        <ele>158.24531</ele>
        <time>2020-07-14T08:34:48.000Z</time>
      </trkpt>
      <trkpt lat="48.54448" lon="1.99023">
        <ele>160.44787</ele>
        <time>2020-07-14T08:36:58.000Z</time>
      </trkpt>
      <trkpt lat="48.54448" lon="1.99023">
        <ele>160.44787</ele>
        <time>2020-07-14T08:36:58.000Z</time>
      </trkpt>
      <trkpt lat="48.54412" lon="1.99079">
        <ele>160.25181</ele>
        <time>2020-07-14T08:37:35.000Z</time>
      </trkpt>
      <trkpt lat="48.54394" lon="1.99129">
        <ele>160.22198</ele>
        <time>2020-07-14T08:38:05.000Z</time>
      </trkpt>
      <trkpt lat="48.54389" lon="1.99205">
        <ele>160.50691</ele>
        <time>2020-07-14T08:38:45.000Z</time>
      </trkpt>
      <trkpt lat="48.54396" lon="1.99246">
        <ele>160.90881</ele>
        <time>2020-07-14T08:39:04.000Z</time>
      </trkpt>
      <trkpt lat="48.54434" lon="1.99295">
        <ele>161.46345</ele>
        <time>2020-07-14T08:39:44.000Z</time>
      </trkpt>
      <trkpt lat="48.54453" lon="1.99346">
        <ele>161.35038</ele>
        <time>2020-07-14T08:40:08.000Z</time>
      </trkpt>
      <trkpt lat="48.54468" lon="1.99455">
        <ele>161.10007</ele>
        <time>2020-07-14T08:41:04.000Z</time>
      </trkpt>
      <trkpt lat="48.54468" lon="1.99455">
        <ele>161.10007</ele>
        <time>2020-07-14T08:41:04.000Z</time>
      </trkpt>
      <trkpt lat="48.54471" lon="1.99464">
        <ele>161.15468</ele>
        <time>2020-07-14T08:41:11.000Z</time>
      </trkpt>
      <trkpt lat="48.54544" lon="1.99473">
        <ele>160.72504</ele>
        <time>2020-07-14T08:42:26.000Z</time>
      </trkpt>
      <trkpt lat="48.54618" lon="1.99461">
        <ele>159.78332</ele>
        <time>2020-07-14T08:43:20.000Z</time>
      </trkpt>
      <trkpt lat="48.5463" lon="1.99482">
        <ele>159.59168</ele>
        <time>2020-07-14T08:43:35.000Z</time>
      </trkpt>
      <trkpt lat="48.54639" lon="1.99668">
        <ele>158.41113</ele>
        <time>2020-07-14T08:45:30.000Z</time>
      </trkpt>
      <trkpt lat="48.54724" lon="1.9975">
        <ele>155.8111</ele>
        <time>2020-07-14T08:46:51.000Z</time>
      </trkpt>
      <trkpt lat="48.54749" lon="1.99783">
        <ele>154.66578</ele>
        <time>2020-07-14T08:47:16.000Z</time>
      </trkpt>
      <trkpt lat="48.54764" lon="1.99829">
        <ele>153.75851</ele>
        <time>2020-07-14T08:47:42.000Z</time>
      </trkpt>
      <trkpt lat="48.54764" lon="1.99829">
        <ele>153.75851</ele>
        <time>2020-07-14T08:47:42.000Z</time>
      </trkpt>
      <trkpt lat="48.54771" lon="1.99843">
        <ele>153.08163</ele>
        <time>2020-07-14T08:47:51.000Z</time>
      </trkpt>
      <trkpt lat="48.54771" lon="1.99887">
        <ele>152.54853</ele>
        <time>2020-07-14T08:48:11.000Z</time>
      </trkpt>
      <trkpt lat="48.54762" lon="2.00002">
        <ele>151.82034</ele>
        <time>2020-07-14T08:49:08.000Z</time>
      </trkpt>
      <trkpt lat="48.5471" lon="2.00277">
        <ele>151.70543</ele>
        <time>2020-07-14T08:51:37.000Z</time>
      </trkpt>
      <trkpt lat="48.5469" lon="2.00452">
        <ele>152.0943</ele>
        <time>2020-07-14T08:53:07.000Z</time>
      </trkpt>
      <trkpt lat="48.5469" lon="2.00452">
        <ele>152.0943</ele>
        <time>2020-07-14T08:53:07.000Z</time>
      </trkpt>
      <trkpt lat="48.54838" lon="2.00304">
        <ele>143.28184</ele>
        <time>2020-07-14T08:55:20.000Z</time>
      </trkpt>
      <trkpt lat="48.54881" lon="2.00275">
        <ele>140.58741</ele>
        <time>2020-07-14T08:55:55.000Z</time>
      </trkpt>
      <trkpt lat="48.54881" lon="2.00275">
        <ele>140.58741</ele>
        <time>2020-07-14T08:55:55.000Z</time>
      </trkpt>
      <trkpt lat="48.54889" lon="2.00277">
        <ele>139.88281</ele>
        <time>2020-07-14T08:59:05.000Z</time>
      </trkpt>
      <trkpt lat="48.54889" lon="2.00265">
        <ele>140.2044</ele>
        <time>2020-07-14T09:05:44.000Z</time>
      </trkpt>
      <trkpt lat="48.54916" lon="2.00237">
        <ele>139.86465</ele>
        <time>2020-07-14T09:06:08.000Z</time>
      </trkpt>
      <trkpt lat="48.54942" lon="2.00227">
        <ele>139.40376</ele>
        <time>2020-07-14T09:06:27.000Z</time>
      </trkpt>
      <trkpt lat="48.5531" lon="2.00241">
        <ele>131.58877</ele>
        <time>2020-07-14T09:11:04.000Z</time>
      </trkpt>
      <trkpt lat="48.55423" lon="2.0028">
        <ele>121.13263</ele>
        <time>2020-07-14T09:12:32.000Z</time>
      </trkpt>
      <trkpt lat="48.55455" lon="2.00313">
        <ele>117.83041</ele>
        <time>2020-07-14T09:13:04.000Z</time>
      </trkpt>
      <trkpt lat="48.55459" lon="2.00334">
        <ele>116.99165</ele>
        <time>2020-07-14T09:13:19.000Z</time>
      </trkpt>
      <trkpt lat="48.55465" lon="2.00328">
        <ele>116.85553</ele>
        <time>2020-07-14T09:13:44.000Z</time>
      </trkpt>
      <trkpt lat="48.5546" lon="2.00336">
        <ele>116.91686</ele>
        <time>2020-07-14T09:14:16.000Z</time>
      </trkpt>
      <trkpt lat="48.5546" lon="2.00336">
        <ele>116.91686</ele>
        <time>2020-07-14T09:14:16.000Z</time>
      </trkpt>
      <trkpt lat="48.55473" lon="2.00391">
        <ele>115.82689</ele>
        <time>2020-07-14T09:14:48.000Z</time>
      </trkpt>
      <trkpt lat="48.55519" lon="2.00459">
        <ele>114.64132</ele>
        <time>2020-07-14T09:15:36.000Z</time>
      </trkpt>
      <trkpt lat="48.55542" lon="2.0047">
        <ele>114.0496</ele>
        <time>2020-07-14T09:15:53.000Z</time>
      </trkpt>
      <trkpt lat="48.55617" lon="2.00457">
        <ele>113.64106</ele>
        <time>2020-07-14T09:16:54.000Z</time>
      </trkpt>
      <trkpt lat="48.55744" lon="2.01023">
        <ele>114.2191</ele>
        <time>2020-07-14T09:22:00.000Z</time>
      </trkpt>
      <trkpt lat="48.55744" lon="2.01023">
        <ele>114.2191</ele>
        <time>2020-07-14T09:22:00.000Z</time>
      </trkpt>
      <trkpt lat="48.5576" lon="2.01044">
        <ele>115.12767</ele>
        <time>2020-07-14T09:22:14.000Z</time>
      </trkpt>
      <trkpt lat="48.55801" lon="2.01039">
        <ele>117.53763</ele>
        <time>2020-07-14T09:22:46.000Z</time>
      </trkpt>
      <trkpt lat="48.55911" lon="2.00977">
        <ele>120.13427</ele>
        <time>2020-07-14T09:24:19.000Z</time>
      </trkpt>
      <trkpt lat="48.56047" lon="2.00955">
        <ele>123.32227</ele>
        <time>2020-07-14T09:26:03.000Z</time>
      </trkpt>
      <trkpt lat="48.56171" lon="2.00901">
        <ele>128.55099</ele>
        <time>2020-07-14T09:27:44.000Z</time>
      </trkpt>
      <trkpt lat="48.56318" lon="2.00909">
        <ele>139.51563</ele>
        <time>2020-07-14T09:30:18.000Z</time>
      </trkpt>
      <trkpt lat="48.56318" lon="2.00909">
        <ele>139.51563</ele>
        <time>2020-07-14T09:30:18.000Z</time>
      </trkpt>
      <trkpt lat="48.56457" lon="2.00967">
        <ele>128.78406</ele>
        <time>2020-07-14T09:32:04.000Z</time>
      </trkpt>
      <trkpt lat="48.5662" lon="2.01088">
        <ele>125.89827</ele>
        <time>2020-07-14T09:34:17.000Z</time>
      </trkpt>
      <trkpt lat="48.5662" lon="2.01088">
        <ele>125.89827</ele>
        <time>2020-07-14T09:34:17.000Z</time>
      </trkpt>
      <trkpt lat="48.56777" lon="2.01166">
        <ele>120.51789</ele>
        <time>2020-07-14T09:36:29.000Z</time>
      </trkpt>
      <trkpt lat="48.56732" lon="2.01139">
        <ele>122.5938</ele>
        <time>2020-07-14T09:37:12.000Z</time>
      </trkpt>
      <trkpt lat="48.56718" lon="2.01152">
        <ele>124.03019</ele>
        <time>2020-07-14T09:37:28.000Z</time>
      </trkpt>
      <trkpt lat="48.56717" lon="2.01322">
        <ele>126.89664</ele>
        <time>2020-07-14T09:38:54.000Z</time>
      </trkpt>
      <trkpt lat="48.56717" lon="2.01322">
        <ele>126.89664</ele>
        <time>2020-07-14T09:38:54.000Z</time>
      </trkpt>
      <trkpt lat="48.5671" lon="2.01497">
        <ele>126.71662</ele>
        <time>2020-07-14T09:40:20.000Z</time>
      </trkpt>
      <trkpt lat="48.56687" lon="2.01667">
        <ele>120.36824</ele>
        <time>2020-07-14T09:41:40.000Z</time>
      </trkpt>
      <trkpt lat="48.56635" lon="2.01878">
        <ele>115.97981</ele>
        <time>2020-07-14T09:43:24.000Z</time>
      </trkpt>
      <trkpt lat="48.56586" lon="2.02029">
        <ele>114.76715</ele>
        <time>2020-07-14T09:44:43.000Z</time>
      </trkpt>
      <trkpt lat="48.56561" lon="2.02136">
        <ele>112.59301</ele>
        <time>2020-07-14T09:45:37.000Z</time>
      </trkpt>
      <trkpt lat="48.56561" lon="2.02192">
        <ele>112.06208</ele>
        <time>2020-07-14T09:46:05.000Z</time>
      </trkpt>
      <trkpt lat="48.56561" lon="2.02192">
        <ele>112.06208</ele>
        <time>2020-07-14T09:46:05.000Z</time>
      </trkpt>
      <trkpt lat="48.56618" lon="2.02332">
        <ele>106.96061</ele>
        <time>2020-07-14T09:47:21.000Z</time>
      </trkpt>
      <trkpt lat="48.56636" lon="2.02484">
        <ele>104.43719</ele>
        <time>2020-07-14T09:48:31.000Z</time>
      </trkpt>
      <trkpt lat="48.56636" lon="2.02484">
        <ele>104.43719</ele>
        <time>2020-07-14T09:48:31.000Z</time>
      </trkpt>
      <trkpt lat="48.56791" lon="2.02632">
        <ele>96.71125</ele>
        <time>2020-07-14T09:52:11.000Z</time>
      </trkpt>
      <trkpt lat="48.56846" lon="2.02665">
        <ele>95.88586</ele>
        <time>2020-07-14T09:52:56.000Z</time>
      </trkpt>
      <trkpt lat="48.56906" lon="2.02779">
        <ele>91.84631</ele>
        <time>2020-07-14T09:54:06.000Z</time>
      </trkpt>
      <trkpt lat="48.57017" lon="2.02817">
        <ele>86.48396</ele>
        <time>2020-07-14T09:55:27.000Z</time>
      </trkpt>
      <trkpt lat="48.57194" lon="2.0291">
        <ele>79.84912</ele>
        <time>2020-07-14T09:58:06.000Z</time>
      </trkpt>
      <trkpt lat="48.57249" lon="2.02914">
        <ele>79.21572</ele>
        <time>2020-07-14T09:58:57.000Z</time>
      </trkpt>
      <trkpt lat="48.57275" lon="2.02949">
        <ele>78.91623</ele>
        <time>2020-07-14T09:59:25.000Z</time>
      </trkpt>
      <trkpt lat="48.57363" lon="2.02989">
        <ele>80.82226</ele>
        <time>2020-07-14T10:00:53.000Z</time>
      </trkpt>
      <trkpt lat="48.57345" lon="2.03027">
        <ele>81.96337</ele>
        <time>2020-07-14T10:01:44.000Z</time>
      </trkpt>
      <trkpt lat="48.57345" lon="2.03027">
        <ele>81.96337</ele>
        <time>2020-07-14T10:01:44.000Z</time>
      </trkpt>
      <trkpt lat="48.57236" lon="2.03208">
        <ele>86.50027</ele>
        <time>2020-07-14T10:03:57.000Z</time>
      </trkpt>
      <trkpt lat="48.57095" lon="2.03327">
        <ele>86.33028</ele>
        <time>2020-07-14T10:06:02.000Z</time>
      </trkpt>
      <trkpt lat="48.57068" lon="2.03319">
        <ele>83.68308</ele>
        <time>2020-07-14T10:06:31.000Z</time>
      </trkpt>
      <trkpt lat="48.57036" lon="2.03332">
        <ele>81.73379</ele>
        <time>2020-07-14T10:07:01.000Z</time>
      </trkpt>
      <trkpt lat="48.57014" lon="2.03317">
        <ele>80.47624</ele>
        <time>2020-07-14T10:07:22.000Z</time>
      </trkpt>
      <trkpt lat="48.57001" lon="2.03332">
        <ele>80.58018</ele>
        <time>2020-07-14T10:07:43.000Z</time>
      </trkpt>
      <trkpt lat="48.56972" lon="2.03415">
        <ele>83.36605</ele>
        <time>2020-07-14T10:08:55.000Z</time>
      </trkpt>
      <trkpt lat="48.5694" lon="2.03439">
        <ele>81.86564</ele>
        <time>2020-07-14T10:09:30.000Z</time>
      </trkpt>
      <trkpt lat="48.56907" lon="2.03443">
        <ele>79.97725</ele>
        <time>2020-07-14T10:09:57.000Z</time>
      </trkpt>
      <trkpt lat="48.56893" lon="2.03462">
        <ele>79.97053</ele>
        <time>2020-07-14T10:10:11.000Z</time>
      </trkpt>
      <trkpt lat="48.56885" lon="2.03518">
        <ele>82.12822</ele>
        <time>2020-07-14T10:10:40.000Z</time>
      </trkpt>
      <trkpt lat="48.56871" lon="2.03545">
        <ele>81.94444</ele>
        <time>2020-07-14T10:10:56.000Z</time>
      </trkpt>
      <trkpt lat="48.56808" lon="2.0362">
        <ele>79.12516</ele>
        <time>2020-07-14T10:11:55.000Z</time>
      </trkpt>
      <trkpt lat="48.56774" lon="2.03726">
        <ele>78.86855</ele>
        <time>2020-07-14T10:12:54.000Z</time>
      </trkpt>
      <trkpt lat="48.56774" lon="2.03726">
        <ele>78.86855</ele>
        <time>2020-07-14T10:12:54.000Z</time>
      </trkpt>
      <trkpt lat="48.5677" lon="2.03769">
        <ele>78.84821</ele>
        <time>2020-07-14T10:13:14.000Z</time>
      </trkpt>
      <trkpt lat="48.56802" lon="2.03958">
        <ele>78.54156</ele>
        <time>2020-07-14T10:14:52.000Z</time>
      </trkpt>
      <trkpt lat="48.56793" lon="2.04061">
        <ele>78.26854</ele>
        <time>2020-07-14T10:16:00.000Z</time>
      </trkpt>
      <trkpt lat="48.56812" lon="2.04343">
        <ele>78.98442</ele>
        <time>2020-07-14T10:18:14.000Z</time>
      </trkpt>
      <trkpt lat="48.56737" lon="2.04617">
        <ele>78.63379</ele>
        <time>2020-07-14T10:20:36.000Z</time>
      </trkpt>
      <trkpt lat="48.56733" lon="2.04704">
        <ele>79.30018</ele>
        <time>2020-07-14T10:21:17.000Z</time>
      </trkpt>
      <trkpt lat="48.56702" lon="2.04839">
        <ele>78.18899</ele>
        <time>2020-07-14T10:22:49.000Z</time>
      </trkpt>
      <trkpt lat="48.56702" lon="2.04839">
        <ele>78.18899</ele>
        <time>2020-07-14T10:22:49.000Z</time>
      </trkpt>
      <trkpt lat="48.56689" lon="2.04924">
        <ele>77.69734</ele>
        <time>2020-07-14T10:23:32.000Z</time>
      </trkpt>
      <trkpt lat="48.56691" lon="2.05044">
        <ele>76.19977</ele>
        <time>2020-07-14T10:24:29.000Z</time>
      </trkpt>
      <trkpt lat="48.56723" lon="2.05171">
        <ele>75.24539</ele>
        <time>2020-07-14T10:25:35.000Z</time>
      </trkpt>
      <trkpt lat="48.56734" lon="2.05313">
        <ele>74.42214</ele>
        <time>2020-07-14T10:27:37.000Z</time>
      </trkpt>
      <trkpt lat="48.56784" lon="2.05507">
        <ele>76.43553</ele>
        <time>2020-07-14T10:29:18.000Z</time>
      </trkpt>
      <trkpt lat="48.56806" lon="2.05645">
        <ele>77.0841</ele>
        <time>2020-07-14T10:30:24.000Z</time>
      </trkpt>
      <trkpt lat="48.56803" lon="2.05759">
        <ele>77.05889</ele>
        <time>2020-07-14T10:31:18.000Z</time>
      </trkpt>
      <trkpt lat="48.56784" lon="2.05941">
        <ele>74.64418</ele>
        <time>2020-07-14T10:32:40.000Z</time>
      </trkpt>
      <trkpt lat="48.56791" lon="2.06069">
        <ele>74.64275</ele>
        <time>2020-07-14T10:33:39.000Z</time>
      </trkpt>
      <trkpt lat="48.56791" lon="2.06069">
        <ele>74.64275</ele>
      </trkpt>
      <trkpt lat="48.56791" lon="2.06086">
        <ele>74.21295</ele>
      </trkpt>
      <trkpt lat="48.56737" lon="2.06087">
        <ele>73.26937</ele>
      </trkpt>
      <trkpt lat="48.56662" lon="2.06051">
        <ele>72.04851</ele>
      </trkpt>
      <trkpt lat="48.56585" lon="2.05983">
        <ele>73.75631</ele>
      </trkpt>
      <trkpt lat="48.56586" lon="2.05985">
        <ele>73.73497</ele>
      </trkpt>
      <trkpt lat="48.56586" lon="2.05985">
        <ele>73.73497</ele>
      </trkpt>
      <trkpt lat="48.56556" lon="2.0604">
        <ele>73.9031</ele>
      </trkpt>
      <trkpt lat="48.56546" lon="2.06156">
        <ele>75.95904</ele>
      </trkpt>
      <trkpt lat="48.56503" lon="2.06167">
        <ele>77.89949</ele>
      </trkpt>
      <trkpt lat="48.56431" lon="2.06154">
        <ele>82.07409</ele>
      </trkpt>
      <trkpt lat="48.56308" lon="2.06155">
        <ele>93.69667</ele>
      </trkpt>
      <trkpt lat="48.56308" lon="2.06155">
        <ele>93.69667</ele>
        <time>2020-07-14T11:25:50.000Z</time>
      </trkpt>
      <trkpt lat="48.56292" lon="2.06148">
        <ele>95.20718</ele>
        <time>2020-07-14T11:26:06.000Z</time>
      </trkpt>
      <trkpt lat="48.56269" lon="2.06055">
        <ele>96.31797</ele>
        <time>2020-07-14T11:26:59.000Z</time>
      </trkpt>
      <trkpt lat="48.56271" lon="2.0588">
        <ele>98.30776</ele>
        <time>2020-07-14T11:28:30.000Z</time>
      </trkpt>
      <trkpt lat="48.56287" lon="2.05752">
        <ele>96.14017</ele>
        <time>2020-07-14T11:29:33.000Z</time>
      </trkpt>
      <trkpt lat="48.56257" lon="2.05585">
        <ele>95.27473</ele>
        <time>2020-07-14T11:30:56.000Z</time>
      </trkpt>
      <trkpt lat="48.56245" lon="2.05577">
        <ele>95.66057</ele>
        <time>2020-07-14T11:31:11.000Z</time>
      </trkpt>
      <trkpt lat="48.56245" lon="2.05577">
        <ele>95.66057</ele>
        <time>2020-07-14T11:31:11.000Z</time>
      </trkpt>
      <trkpt lat="48.55922" lon="2.05593">
        <ele>103.55431</ele>
        <time>2020-07-14T11:35:07.000Z</time>
      </trkpt>
      <trkpt lat="48.55922" lon="2.05593">
        <ele>103.55431</ele>
        <time>2020-07-14T11:35:07.000Z</time>
      </trkpt>
      <trkpt lat="48.55782" lon="2.05613">
        <ele>116.46155</ele>
        <time>2020-07-14T11:37:13.000Z</time>
      </trkpt>
      <trkpt lat="48.55731" lon="2.0565">
        <ele>119.38273</ele>
        <time>2020-07-14T11:37:57.000Z</time>
      </trkpt>
      <trkpt lat="48.55638" lon="2.05791">
        <ele>119.43837</ele>
        <time>2020-07-14T11:39:29.000Z</time>
      </trkpt>
      <trkpt lat="48.5559" lon="2.05835">
        <ele>121.98803</ele>
        <time>2020-07-14T11:40:12.000Z</time>
      </trkpt>
      <trkpt lat="48.55548" lon="2.0599">
        <ele>127.07141</ele>
        <time>2020-07-14T11:41:36.000Z</time>
      </trkpt>
      <trkpt lat="48.55548" lon="2.0599">
        <ele>127.07141</ele>
        <time>2020-07-14T11:41:36.000Z</time>
      </trkpt>
      <trkpt lat="48.55499" lon="2.0612">
        <ele>132.10109</ele>
        <time>2020-07-14T11:42:45.000Z</time>
      </trkpt>
      <trkpt lat="48.55525" lon="2.06275">
        <ele>133.68792</ele>
        <time>2020-07-14T11:44:03.000Z</time>
      </trkpt>
      <trkpt lat="48.55522" lon="2.06347">
        <ele>137.84253</ele>
        <time>2020-07-14T11:44:40.000Z</time>
      </trkpt>
      <trkpt lat="48.55501" lon="2.06445">
        <ele>144.76454</ele>
        <time>2020-07-14T11:45:35.000Z</time>
      </trkpt>
      <trkpt lat="48.555" lon="2.0656">
        <ele>150.00965</ele>
        <time>2020-07-14T11:46:32.000Z</time>
      </trkpt>
      <trkpt lat="48.55523" lon="2.06771">
        <ele>153.67295</ele>
        <time>2020-07-14T11:48:23.000Z</time>
      </trkpt>
      <trkpt lat="48.55534" lon="2.06788">
        <ele>153.79872</ele>
        <time>2020-07-14T11:50:37.000Z</time>
      </trkpt>
      <trkpt lat="48.55523" lon="2.06884">
        <ele>154.11031</ele>
        <time>2020-07-14T11:51:48.000Z</time>
      </trkpt>
      <trkpt lat="48.555" lon="2.06888">
        <ele>153.89118</ele>
        <time>2020-07-14T11:52:15.000Z</time>
      </trkpt>
      <trkpt lat="48.555" lon="2.06888">
        <ele>153.89118</ele>
        <time>2020-07-14T11:52:15.000Z</time>
      </trkpt>
      <trkpt lat="48.5549" lon="2.06893">
        <ele>153.95634</ele>
        <time>2020-07-14T11:52:25.000Z</time>
      </trkpt>
      <trkpt lat="48.55482" lon="2.0692">
        <ele>154.10004</ele>
        <time>2020-07-14T11:52:43.000Z</time>
      </trkpt>
      <trkpt lat="48.5547" lon="2.06997">
        <ele>154.12676</ele>
        <time>2020-07-14T11:53:34.000Z</time>
      </trkpt>
      <trkpt lat="48.55493" lon="2.07068">
        <ele>154.66547</ele>
        <time>2020-07-14T11:54:20.000Z</time>
      </trkpt>
      <trkpt lat="48.55477" lon="2.07157">
        <ele>154.95102</ele>
        <time>2020-07-14T11:54:54.000Z</time>
      </trkpt>
      <trkpt lat="48.55395" lon="2.07375">
        <ele>153.82102</ele>
        <time>2020-07-14T11:57:21.000Z</time>
      </trkpt>
      <trkpt lat="48.55329" lon="2.07613">
        <ele>153.06581</ele>
        <time>2020-07-14T11:59:29.000Z</time>
      </trkpt>
      <trkpt lat="48.5524" lon="2.07823">
        <ele>151.36316</ele>
        <time>2020-07-14T12:01:26.000Z</time>
      </trkpt>
      <trkpt lat="48.55203" lon="2.08001">
        <ele>151.08269</ele>
        <time>2020-07-14T12:02:56.000Z</time>
      </trkpt>
      <trkpt lat="48.55185" lon="2.08203">
        <ele>151.18424</ele>
        <time>2020-07-14T12:04:31.000Z</time>
      </trkpt>
      <trkpt lat="48.55198" lon="2.08585">
        <ele>153.6</ele>
        <time>2020-07-14T12:07:44.000Z</time>
      </trkpt>
      <trkpt lat="48.55198" lon="2.08585">
        <ele>153.6</ele>
      </trkpt>
      <trkpt lat="48.55198" lon="2.086">
        <ele>153.6</ele>
      </trkpt>
      <trkpt lat="48.55199" lon="2.08648">
        <ele>153.1</ele>
      </trkpt>
      <trkpt lat="48.552" lon="2.08695">
        <ele>152.2</ele>
      </trkpt>
      <trkpt lat="48.55205" lon="2.08728">
        <ele>152.1</ele>
      </trkpt>
      <trkpt lat="48.55215" lon="2.08729">
        <ele>152.6</ele>
      </trkpt>
      <trkpt lat="48.55215" lon="2.08729">
        <ele>152.6</ele>
      </trkpt>
      <trkpt lat="48.55205" lon="2.08728">
        <ele>152.1</ele>
      </trkpt>
      <trkpt lat="48.55203" lon="2.08716">
        <ele>152</ele>
      </trkpt>
      <trkpt lat="48.55198" lon="2.087">
        <ele>152</ele>
      </trkpt>
      <trkpt lat="48.55182" lon="2.08668">
        <ele>152.2</ele>
      </trkpt>
      <trkpt lat="48.5517" lon="2.0865">
        <ele>152.2</ele>
      </trkpt>
      <trkpt lat="48.55161" lon="2.08633">
        <ele>152.2</ele>
      </trkpt>
      <trkpt lat="48.5515" lon="2.08614">
        <ele>152</ele>
      </trkpt>
      <trkpt lat="48.55137" lon="2.08581">
        <ele>151.7</ele>
      </trkpt>
      <trkpt lat="48.55126" lon="2.08545">
        <ele>151.1</ele>
      </trkpt>
      <trkpt lat="48.55115" lon="2.0851">
        <ele>150.4</ele>
      </trkpt>
      <trkpt lat="48.55106" lon="2.08477">
        <ele>149.5</ele>
      </trkpt>
      <trkpt lat="48.55097" lon="2.08445">
        <ele>148.6</ele>
      </trkpt>
      <trkpt lat="48.55084" lon="2.08395">
        <ele>147.1</ele>
      </trkpt>
      <trkpt lat="48.55072" lon="2.08365">
        <ele>145.9</ele>
      </trkpt>
      <trkpt lat="48.55067" lon="2.0835">
        <ele>145.7</ele>
      </trkpt>
      <trkpt lat="48.55067" lon="2.0835">
        <ele>145.7</ele>
      </trkpt>
      <trkpt lat="48.55063" lon="2.08338">
        <ele>145.6</ele>
      </trkpt>
      <trkpt lat="48.55048" lon="2.08357">
        <ele>145.2</ele>
      </trkpt>
      <trkpt lat="48.5504" lon="2.08372">
        <ele>144.7</ele>
      </trkpt>
      <trkpt lat="48.55029" lon="2.08406">
        <ele>144.2</ele>
      </trkpt>
      <trkpt lat="48.55018" lon="2.0844">
        <ele>143.5</ele>
      </trkpt>
      <trkpt lat="48.55008" lon="2.08477">
        <ele>142.6</ele>
      </trkpt>
      <trkpt lat="48.54997" lon="2.08513">
        <ele>141.5</ele>
      </trkpt>
      <trkpt lat="48.54998" lon="2.08536">
        <ele>140.9</ele>
      </trkpt>
      <trkpt lat="48.55001" lon="2.0856">
        <ele>140.3</ele>
      </trkpt>
      <trkpt lat="48.55007" lon="2.08595">
        <ele>139.1</ele>
      </trkpt>
      <trkpt lat="48.55014" lon="2.0863">
        <ele>137.6</ele>
      </trkpt>
      <trkpt lat="48.55026" lon="2.0868">
        <ele>136</ele>
      </trkpt>
      <trkpt lat="48.55036" lon="2.08717">
        <ele>134.6</ele>
      </trkpt>
      <trkpt lat="48.55042" lon="2.08737">
        <ele>133.6</ele>
      </trkpt>
      <trkpt lat="48.55042" lon="2.08737">
        <ele>133.6</ele>
      </trkpt>
      <trkpt lat="48.55047" lon="2.08753">
        <ele>132.9</ele>
      </trkpt>
      <trkpt lat="48.55049" lon="2.08781">
        <ele>131.7</ele>
      </trkpt>
      <trkpt lat="48.55044" lon="2.08834">
        <ele>130.3</ele>
      </trkpt>
      <trkpt lat="48.55036" lon="2.08866">
        <ele>129.8</ele>
      </trkpt>
      <trkpt lat="48.55029" lon="2.08898">
        <ele>129.4</ele>
      </trkpt>
      <trkpt lat="48.55023" lon="2.08933">
        <ele>129</ele>
      </trkpt>
      <trkpt lat="48.55022" lon="2.08968">
        <ele>128.4</ele>
      </trkpt>
      <trkpt lat="48.55023" lon="2.08971">
        <ele>128.3</ele>
      </trkpt>
      <trkpt lat="48.55023" lon="2.08971">
        <ele>128.3</ele>
      </trkpt>
      <trkpt lat="48.55035" lon="2.09033">
        <ele>125.9</ele>
      </trkpt>
      <trkpt lat="48.55025" lon="2.09098">
        <ele>122.8</ele>
      </trkpt>
      <trkpt lat="48.55009" lon="2.09136">
        <ele>121.4</ele>
      </trkpt>
      <trkpt lat="48.54992" lon="2.09173">
        <ele>120.5</ele>
      </trkpt>
      <trkpt lat="48.54976" lon="2.09212">
        <ele>119.9</ele>
      </trkpt>
      <trkpt lat="48.5496" lon="2.09252">
        <ele>119.7</ele>
      </trkpt>
      <trkpt lat="48.54938" lon="2.09295">
        <ele>119</ele>
      </trkpt>
      <trkpt lat="48.54915" lon="2.09338">
        <ele>118.2</ele>
      </trkpt>
      <trkpt lat="48.54901" lon="2.09374">
        <ele>117.8</ele>
      </trkpt>
      <trkpt lat="48.54887" lon="2.0941">
        <ele>117.3</ele>
      </trkpt>
      <trkpt lat="48.54883" lon="2.09418">
        <ele>117.1</ele>
      </trkpt>
      <trkpt lat="48.54892" lon="2.0941">
        <ele>117.6</ele>
      </trkpt>
      <trkpt lat="48.54892" lon="2.0941">
        <ele>117.6</ele>
      </trkpt>
      <trkpt lat="48.54914" lon="2.09391">
        <ele>118.9</ele>
      </trkpt>
      <trkpt lat="48.54952" lon="2.09371">
        <ele>124.1</ele>
      </trkpt>
      <trkpt lat="48.54956" lon="2.09369">
        <ele>124.9</ele>
      </trkpt>
      <trkpt lat="48.54956" lon="2.09369">
        <ele>124.9</ele>
      </trkpt>
      <trkpt lat="48.54952" lon="2.09371">
        <ele>124.1</ele>
      </trkpt>
      <trkpt lat="48.54951" lon="2.09412">
        <ele>123.9</ele>
      </trkpt>
      <trkpt lat="48.54953" lon="2.09443">
        <ele>122.6</ele>
      </trkpt>
      <trkpt lat="48.54944" lon="2.09469">
        <ele>120.3</ele>
      </trkpt>
      <trkpt lat="48.54944" lon="2.09486">
        <ele>119.8</ele>
      </trkpt>
      <trkpt lat="48.54946" lon="2.09488">
        <ele>120</ele>
      </trkpt>
      <trkpt lat="48.54946" lon="2.09488">
        <ele>120</ele>
      </trkpt>
      <trkpt lat="48.54951" lon="2.09493">
        <ele>120.5</ele>
      </trkpt>
      <trkpt lat="48.54964" lon="2.09499">
        <ele>122</ele>
      </trkpt>
      <trkpt lat="48.54965" lon="2.09513">
        <ele>123.3</ele>
      </trkpt>
      <trkpt lat="48.54963" lon="2.09543">
        <ele>125.4</ele>
      </trkpt>
      <trkpt lat="48.54966" lon="2.09559">
        <ele>127.5</ele>
      </trkpt>
      <trkpt lat="48.54974" lon="2.09567">
        <ele>130.6</ele>
      </trkpt>
      <trkpt lat="48.54978" lon="2.09545">
        <ele>130</ele>
      </trkpt>
      <trkpt lat="48.54989" lon="2.09534">
        <ele>131.3</ele>
      </trkpt>
      <trkpt lat="48.54995" lon="2.09546">
        <ele>134.7</ele>
      </trkpt>
      <trkpt lat="48.54988" lon="2.09561">
        <ele>134.7</ele>
      </trkpt>
      <trkpt lat="48.54985" lon="2.09575">
        <ele>134.7</ele>
      </trkpt>
      <trkpt lat="48.5499" lon="2.09602">
        <ele>137.3</ele>
      </trkpt>
      <trkpt lat="48.54998" lon="2.09566">
        <ele>138.2</ele>
      </trkpt>
      <trkpt lat="48.5501" lon="2.09552">
        <ele>140</ele>
      </trkpt>
      <trkpt lat="48.55025" lon="2.09538">
        <ele>141.5</ele>
      </trkpt>
      <trkpt lat="48.55035" lon="2.09533">
        <ele>143.1</ele>
      </trkpt>
      <trkpt lat="48.55037" lon="2.09544">
        <ele>145.2</ele>
      </trkpt>
      <trkpt lat="48.5502" lon="2.0957">
        <ele>145.1</ele>
      </trkpt>
      <trkpt lat="48.55006" lon="2.09598">
        <ele>143.1</ele>
      </trkpt>
      <trkpt lat="48.55006" lon="2.09619">
        <ele>142.3</ele>
      </trkpt>
      <trkpt lat="48.55012" lon="2.09627">
        <ele>143.8</ele>
      </trkpt>
      <trkpt lat="48.55011" lon="2.09641">
        <ele>143.1</ele>
      </trkpt>
      <trkpt lat="48.55011" lon="2.09642">
        <ele>143.1</ele>
      </trkpt>
      <trkpt lat="48.55011" lon="2.09642">
        <ele>143.1</ele>
      </trkpt>
      <trkpt lat="48.54999" lon="2.09669">
        <ele>139.9</ele>
      </trkpt>
      <trkpt lat="48.54991" lon="2.09684">
        <ele>138.9</ele>
      </trkpt>
      <trkpt lat="48.5499" lon="2.097">
        <ele>140.4</ele>
      </trkpt>
      <trkpt lat="48.54976" lon="2.09714">
        <ele>136.3</ele>
      </trkpt>
      <trkpt lat="48.54961" lon="2.09739">
        <ele>134.2</ele>
      </trkpt>
      <trkpt lat="48.54945" lon="2.09764">
        <ele>133.3</ele>
      </trkpt>
      <trkpt lat="48.54939" lon="2.09782">
        <ele>134.2</ele>
      </trkpt>
      <trkpt lat="48.54934" lon="2.09808">
        <ele>134.3</ele>
      </trkpt>
      <trkpt lat="48.54934" lon="2.09824">
        <ele>134.3</ele>
      </trkpt>
      <trkpt lat="48.54939" lon="2.09835">
        <ele>135.2</ele>
      </trkpt>
      <trkpt lat="48.54948" lon="2.09837">
        <ele>137.8</ele>
      </trkpt>
      <trkpt lat="48.54956" lon="2.09796">
        <ele>140.1</ele>
      </trkpt>
      <trkpt lat="48.54961" lon="2.09804">
        <ele>142.4</ele>
      </trkpt>
      <trkpt lat="48.54966" lon="2.09824">
        <ele>144.3</ele>
      </trkpt>
      <trkpt lat="48.54965" lon="2.09855">
        <ele>142.8</ele>
      </trkpt>
      <trkpt lat="48.54971" lon="2.09884">
        <ele>143.7</ele>
      </trkpt>
      <trkpt lat="48.54972" lon="2.09938">
        <ele>143.2</ele>
      </trkpt>
      <trkpt lat="48.54973" lon="2.09965">
        <ele>143.6</ele>
      </trkpt>
      <trkpt lat="48.54961" lon="2.09995">
        <ele>138.5</ele>
      </trkpt>
      <trkpt lat="48.54975" lon="2.10035">
        <ele>137.8</ele>
      </trkpt>
      <trkpt lat="48.54984" lon="2.10045">
        <ele>139.1</ele>
      </trkpt>
      <trkpt lat="48.54996" lon="2.10077">
        <ele>138.9</ele>
      </trkpt>
      <trkpt lat="48.55005" lon="2.1012">
        <ele>142.2</ele>
      </trkpt>
      <trkpt lat="48.55006" lon="2.10154">
        <ele>143.3</ele>
      </trkpt>
      <trkpt lat="48.55" lon="2.10167">
        <ele>141.5</ele>
      </trkpt>
      <trkpt lat="48.54998" lon="2.10198">
        <ele>141.4</ele>
      </trkpt>
      <trkpt lat="48.54999" lon="2.1023">
        <ele>142.8</ele>
      </trkpt>
      <trkpt lat="48.55001" lon="2.1025">
        <ele>144.1</ele>
      </trkpt>
      <trkpt lat="48.54995" lon="2.1031">
        <ele>141.3</ele>
      </trkpt>
      <trkpt lat="48.54995" lon="2.10328">
        <ele>140.9</ele>
      </trkpt>
      <trkpt lat="48.55003" lon="2.1036">
        <ele>143.6</ele>
      </trkpt>
      <trkpt lat="48.55005" lon="2.10408">
        <ele>141.2</ele>
      </trkpt>
      <trkpt lat="48.55011" lon="2.10429">
        <ele>143.1</ele>
      </trkpt>
      <trkpt lat="48.55013" lon="2.10447">
        <ele>143.9</ele>
      </trkpt>
      <trkpt lat="48.55009" lon="2.10487">
        <ele>144.9</ele>
      </trkpt>
      <trkpt lat="48.55011" lon="2.10504">
        <ele>146.8</ele>
      </trkpt>
      <trkpt lat="48.55015" lon="2.10523">
        <ele>149</ele>
      </trkpt>
      <trkpt lat="48.55024" lon="2.10531">
        <ele>151.6</ele>
      </trkpt>
      <trkpt lat="48.55032" lon="2.10525">
        <ele>153.4</ele>
      </trkpt>
      <trkpt lat="48.55031" lon="2.10534">
        <ele>153.1</ele>
      </trkpt>
      <trkpt lat="48.55031" lon="2.10534">
        <ele>153.1</ele>
      </trkpt>
      <trkpt lat="48.55032" lon="2.10525">
        <ele>153.4</ele>
      </trkpt>
      <trkpt lat="48.55034" lon="2.10503">
        <ele>153.2</ele>
      </trkpt>
      <trkpt lat="48.55047" lon="2.10466">
        <ele>154.3</ele>
      </trkpt>
      <trkpt lat="48.5506" lon="2.10429">
        <ele>155.8</ele>
      </trkpt>
      <trkpt lat="48.55092" lon="2.10387">
        <ele>157.7</ele>
      </trkpt>
      <trkpt lat="48.55125" lon="2.10346">
        <ele>157.8</ele>
      </trkpt>
      <trkpt lat="48.55144" lon="2.10323">
        <ele>156.8</ele>
      </trkpt>
      <trkpt lat="48.55164" lon="2.103">
        <ele>155.4</ele>
      </trkpt>
      <trkpt lat="48.55196" lon="2.10284">
        <ele>153.3</ele>
      </trkpt>
      <trkpt lat="48.55217" lon="2.10282">
        <ele>153</ele>
      </trkpt>
      <trkpt lat="48.55239" lon="2.103">
        <ele>152.8</ele>
      </trkpt>
      <trkpt lat="48.55273" lon="2.10295">
        <ele>154.3</ele>
      </trkpt>
      <trkpt lat="48.55307" lon="2.1029">
        <ele>153.9</ele>
      </trkpt>
      <trkpt lat="48.55344" lon="2.10271">
        <ele>151.8</ele>
      </trkpt>
      <trkpt lat="48.55366" lon="2.10261">
        <ele>151.2</ele>
      </trkpt>
      <trkpt lat="48.55387" lon="2.10251">
        <ele>151.2</ele>
      </trkpt>
      <trkpt lat="48.55411" lon="2.10238">
        <ele>151.4</ele>
      </trkpt>
      <trkpt lat="48.55434" lon="2.10226">
        <ele>152.2</ele>
      </trkpt>
      <trkpt lat="48.55458" lon="2.10237">
        <ele>152.6</ele>
      </trkpt>
      <trkpt lat="48.5548" lon="2.10246">
        <ele>153.7</ele>
      </trkpt>
      <trkpt lat="48.55506" lon="2.10232">
        <ele>155.1</ele>
      </trkpt>
      <trkpt lat="48.55506" lon="2.10231">
        <ele>155.1</ele>
      </trkpt>
      <trkpt lat="48.55506" lon="2.10231">
        <ele>155.1</ele>
      </trkpt>
      <trkpt lat="48.55506" lon="2.10232">
        <ele>155.1</ele>
      </trkpt>
      <trkpt lat="48.55522" lon="2.10288">
        <ele>155</ele>
      </trkpt>
      <trkpt lat="48.55538" lon="2.10344">
        <ele>154.6</ele>
      </trkpt>
      <trkpt lat="48.55554" lon="2.104">
        <ele>154.3</ele>
      </trkpt>
      <trkpt lat="48.55571" lon="2.10443">
        <ele>154.4</ele>
      </trkpt>
      <trkpt lat="48.55587" lon="2.10486">
        <ele>154.5</ele>
      </trkpt>
      <trkpt lat="48.55604" lon="2.10529">
        <ele>154.3</ele>
      </trkpt>
      <trkpt lat="48.55625" lon="2.10585">
        <ele>153.3</ele>
      </trkpt>
      <trkpt lat="48.55646" lon="2.1064">
        <ele>152</ele>
      </trkpt>
      <trkpt lat="48.55667" lon="2.10696">
        <ele>151.2</ele>
      </trkpt>
      <trkpt lat="48.55689" lon="2.10751">
        <ele>151.7</ele>
      </trkpt>
      <trkpt lat="48.5571" lon="2.10807">
        <ele>152.2</ele>
      </trkpt>
      <trkpt lat="48.55729" lon="2.10855">
        <ele>151.8</ele>
      </trkpt>
      <trkpt lat="48.55747" lon="2.10901">
        <ele>151.4</ele>
      </trkpt>
      <trkpt lat="48.55747" lon="2.10901">
        <ele>151.4</ele>
      </trkpt>
      <trkpt lat="48.55748" lon="2.10903">
        <ele>151.4</ele>
      </trkpt>
      <trkpt lat="48.55737" lon="2.10938">
        <ele>150.9</ele>
      </trkpt>
      <trkpt lat="48.55726" lon="2.10973">
        <ele>149.5</ele>
      </trkpt>
      <trkpt lat="48.55722" lon="2.11007">
        <ele>147.7</ele>
      </trkpt>
      <trkpt lat="48.55734" lon="2.11066">
        <ele>147.9</ele>
      </trkpt>
      <trkpt lat="48.55738" lon="2.11122">
        <ele>147.9</ele>
      </trkpt>
      <trkpt lat="48.55736" lon="2.11172">
        <ele>147</ele>
      </trkpt>
      <trkpt lat="48.55741" lon="2.11223">
        <ele>147.3</ele>
      </trkpt>
      <trkpt lat="48.55746" lon="2.11274">
        <ele>148.3</ele>
      </trkpt>
      <trkpt lat="48.55747" lon="2.11309">
        <ele>147.7</ele>
      </trkpt>
      <trkpt lat="48.55743" lon="2.11349">
        <ele>145.5</ele>
      </trkpt>
      <trkpt lat="48.55738" lon="2.11373">
        <ele>143.1</ele>
      </trkpt>
      <trkpt lat="48.55726" lon="2.1142">
        <ele>138.8</ele>
      </trkpt>
      <trkpt lat="48.55714" lon="2.11467">
        <ele>137.2</ele>
      </trkpt>
      <trkpt lat="48.55695" lon="2.11513">
        <ele>137.7</ele>
      </trkpt>
      <trkpt lat="48.55688" lon="2.11541">
        <ele>138.3</ele>
      </trkpt>
      <trkpt lat="48.55684" lon="2.11581">
        <ele>137.7</ele>
      </trkpt>
      <trkpt lat="48.55679" lon="2.11634">
        <ele>135.7</ele>
      </trkpt>
      <trkpt lat="48.55674" lon="2.11685">
        <ele>134.6</ele>
      </trkpt>
      <trkpt lat="48.55669" lon="2.11736">
        <ele>134.2</ele>
      </trkpt>
      <trkpt lat="48.55667" lon="2.11746">
        <ele>134.1</ele>
      </trkpt>
      <trkpt lat="48.55663" lon="2.11752">
        <ele>133.9</ele>
      </trkpt>
      <trkpt lat="48.55641" lon="2.11808">
        <ele>133</ele>
      </trkpt>
      <trkpt lat="48.55627" lon="2.11845">
        <ele>132.2</ele>
      </trkpt>
      <trkpt lat="48.55612" lon="2.11882">
        <ele>130.4</ele>
      </trkpt>
      <trkpt lat="48.55605" lon="2.11915">
        <ele>128.8</ele>
      </trkpt>
      <trkpt lat="48.556" lon="2.11949">
        <ele>126.7</ele>
      </trkpt>
      <trkpt lat="48.55595" lon="2.11983">
        <ele>124.2</ele>
      </trkpt>
      <trkpt lat="48.55585" lon="2.12036">
        <ele>121.4</ele>
      </trkpt>
      <trkpt lat="48.55583" lon="2.12044">
        <ele>121.1</ele>
      </trkpt>
      <trkpt lat="48.55583" lon="2.12044">
        <ele>121.1</ele>
      </trkpt>
      <trkpt lat="48.55579" lon="2.1206">
        <ele>120.4</ele>
      </trkpt>
      <trkpt lat="48.55576" lon="2.12066">
        <ele>120.1</ele>
      </trkpt>
      <trkpt lat="48.5557" lon="2.1208">
        <ele>119.5</ele>
      </trkpt>
      <trkpt lat="48.55557" lon="2.12103">
        <ele>117.1</ele>
      </trkpt>
      <trkpt lat="48.55546" lon="2.1212">
        <ele>114.6</ele>
      </trkpt>
      <trkpt lat="48.55543" lon="2.12123">
        <ele>113.8</ele>
      </trkpt>
      <trkpt lat="48.55537" lon="2.12124">
        <ele>112.7</ele>
      </trkpt>
      <trkpt lat="48.55528" lon="2.12144">
        <ele>111.7</ele>
      </trkpt>
      <trkpt lat="48.55513" lon="2.12168">
        <ele>110.7</ele>
      </trkpt>
      <trkpt lat="48.55507" lon="2.12162">
        <ele>110.1</ele>
      </trkpt>
      <trkpt lat="48.55503" lon="2.12161">
        <ele>109.7</ele>
      </trkpt>
      <trkpt lat="48.55473" lon="2.12165">
        <ele>107.1</ele>
      </trkpt>
      <trkpt lat="48.55435" lon="2.12172">
        <ele>103.9</ele>
      </trkpt>
      <trkpt lat="48.55436" lon="2.12188">
        <ele>104.7</ele>
      </trkpt>
      <trkpt lat="48.55415" lon="2.12198">
        <ele>102.7</ele>
      </trkpt>
      <trkpt lat="48.554" lon="2.12205">
        <ele>101.2</ele>
      </trkpt>
      <trkpt lat="48.55369" lon="2.12212">
        <ele>97.1</ele>
      </trkpt>
      <trkpt lat="48.55342" lon="2.12214">
        <ele>92.5</ele>
      </trkpt>
      <trkpt lat="48.55343" lon="2.122">
        <ele>92.1</ele>
      </trkpt>
      <trkpt lat="48.55342" lon="2.1218">
        <ele>91.6</ele>
      </trkpt>
      <trkpt lat="48.55324" lon="2.12178">
        <ele>89.3</ele>
      </trkpt>
      <trkpt lat="48.55309" lon="2.12178">
        <ele>88</ele>
      </trkpt>
      <trkpt lat="48.55293" lon="2.12178">
        <ele>86.8</ele>
      </trkpt>
      <trkpt lat="48.5529" lon="2.1218">
        <ele>86.7</ele>
      </trkpt>
      <trkpt lat="48.55268" lon="2.12178">
        <ele>85</ele>
      </trkpt>
      <trkpt lat="48.55252" lon="2.12177">
        <ele>83.7</ele>
      </trkpt>
      <trkpt lat="48.55249" lon="2.1218">
        <ele>83.5</ele>
      </trkpt>
      <trkpt lat="48.55247" lon="2.12182">
        <ele>83.5</ele>
      </trkpt>
      <trkpt lat="48.55247" lon="2.12185">
        <ele>83.7</ele>
      </trkpt>
      <trkpt lat="48.55248" lon="2.12197">
        <ele>84.3</ele>
      </trkpt>
      <trkpt lat="48.55237" lon="2.12199">
        <ele>83.6</ele>
      </trkpt>
      <trkpt lat="48.55235" lon="2.12241">
        <ele>85.4</ele>
      </trkpt>
      <trkpt lat="48.55237" lon="2.12262">
        <ele>86</ele>
      </trkpt>
      <trkpt lat="48.55237" lon="2.12281">
        <ele>86.5</ele>
      </trkpt>
      <trkpt lat="48.55239" lon="2.12306">
        <ele>86.9</ele>
      </trkpt>
      <trkpt lat="48.55239" lon="2.12313">
        <ele>86.9</ele>
      </trkpt>
      <trkpt lat="48.55237" lon="2.12321">
        <ele>86.7</ele>
      </trkpt>
      <trkpt lat="48.55234" lon="2.12328">
        <ele>86.5</ele>
      </trkpt>
      <trkpt lat="48.55213" lon="2.1237">
        <ele>84.5</ele>
      </trkpt>
      <trkpt lat="48.55193" lon="2.12412">
        <ele>82.4</ele>
      </trkpt>
      <trkpt lat="48.55173" lon="2.12454">
        <ele>79.3</ele>
      </trkpt>
      <trkpt lat="48.55152" lon="2.12497">
        <ele>76.5</ele>
      </trkpt>
      <trkpt lat="48.55147" lon="2.12507">
        <ele>76</ele>
      </trkpt>
      <trkpt lat="48.55144" lon="2.12515">
        <ele>75.8</ele>
      </trkpt>
      <trkpt lat="48.55143" lon="2.12519">
        <ele>75.7</ele>
      </trkpt>
      <trkpt lat="48.55142" lon="2.12525">
        <ele>75.6</ele>
      </trkpt>
      <trkpt lat="48.55143" lon="2.12536">
        <ele>75.5</ele>
      </trkpt>
      <trkpt lat="48.55145" lon="2.12548">
        <ele>75.5</ele>
      </trkpt>
      <trkpt lat="48.55146" lon="2.1255">
        <ele>75.5</ele>
      </trkpt>
      <trkpt lat="48.55133" lon="2.12556">
        <ele>75.1</ele>
      </trkpt>
      <trkpt lat="48.55126" lon="2.12559">
        <ele>74.8</ele>
      </trkpt>
      <trkpt lat="48.55123" lon="2.1256">
        <ele>74.6</ele>
      </trkpt>
      <trkpt lat="48.5512" lon="2.12559">
        <ele>74.5</ele>
      </trkpt>
      <trkpt lat="48.55116" lon="2.12561">
        <ele>74.2</ele>
      </trkpt>
    </trkseg>
  </trk>
</gpx>